Weather History for Augusta, ME

Change the Weather History Date:

Saturday, March 15, 2014

  Actual Average Record
Temperature  
Mean Temperature 40 °F 31 °F  
Max Temperature 47 °F 40 °F 51 °F (2009)
Min Temperature 33 °F 23 °F 15 °F (2013)
Degree Days  
Heating Degree Days 25 34  
Month to date heating degree days 646 538  
Since 1 July heating degree days 6152 5881  
Cooling Degree Days 0 0  
Month to date cooling degree days 0 0  
Year to date cooling degree days 0 0  
Moisture  
Dew Point 30 °F    
Average Humidity 69    
Maximum Humidity 89    
Minimum Humidity 49    
Precipitation  
Precipitation 0.01 in 0.11 in 0.68 in (1999)
Month to date precipitation 1.15 1.49  
Year to date precipitation 5.94 6.53  
Sea Level Pressure  
Sea Level Pressure 29.70 in    
Wind  
Wind Speed 8 mph (SSW)    
Max Wind Speed 15 mph    
Max Gust Speed 24 mph    
Visibility 10 miles    
Events Rain    
T = Trace of Precipitation, MM = Missing Value Source: NWS Daily Summary

Daily Weather History Graph

Daily Weather History Graph

Search for Another Location

Airport:

Trip Planner

Search our weather history database for the weather conditions in past years. The results will help you decide how hot, cold, wet, or windy it might be!

Date:

Astronomy

Mar. 15, 2014 Rise Set
Actual Time 6:51 AM EDT 6:45 PM EDT
Civil Twilight 6:22 AM EDT 7:14 PM EDT
Nautical Twilight 5:49 AM EDT 7:48 PM EDT
Astronomical Twilight 5:14 AM EDT 8:22 PM EDT
Moon 6:00 PM EDT (3/15) 6:03 AM EDT (3/15)
Length of Visible Light 12h 51m
Length of Day
11h 53m
Waxing Gibbous, 99% of the Moon is Illuminated
Mar 15
Waxing Gibbous
Mar 16
Full
Mar 23
Last Quarter
Mar 30
New
Apr 7
First Quarter

Hourly Weather History & Observations

Time (EDT) Temp. Windchill Dew Point Humidity Pressure Visibility Wind Dir Wind Speed Gust Speed Precip Events Conditions
12:53 AM 33.1 °F 25.5 °F 21.0 °F 61% 29.84 in 10.0 mi South 9.2 mph 21.9 mph N/A   Overcast
1:53 AM 33.1 °F 24.4 °F 21.9 °F 64% 29.83 in 10.0 mi South 11.5 mph 18.4 mph N/A   Overcast
2:53 AM 33.1 °F 26.1 °F 23.0 °F 66% 29.80 in 10.0 mi South 8.1 mph - N/A   Overcast
3:53 AM 33.1 °F 26.1 °F 24.1 °F 70% 29.77 in 10.0 mi South 8.1 mph - N/A   Overcast
4:53 AM 34.0 °F 26.6 °F 26.1 °F 73% 29.73 in 10.0 mi South 9.2 mph - N/A   Overcast
5:53 AM 34.0 °F 27.2 °F 27.0 °F 75% 29.72 in 10.0 mi South 8.1 mph - N/A   Overcast
6:53 AM 34.0 °F 25.5 °F 30.0 °F 85% 29.71 in 9.0 mi South 11.5 mph - 0.00 in Rain Light Rain
7:53 AM 34.0 °F 26.0 °F 30.9 °F 89% 29.70 in 9.0 mi South 10.4 mph - 0.00 in   Overcast
8:53 AM 35.1 °F 28.6 °F 32.0 °F 89% 29.68 in 8.0 mi South 8.1 mph - 0.00 in   Overcast
9:53 AM 35.1 °F 30.1 °F 32.0 °F 89% 29.68 in 9.0 mi South 5.8 mph - 0.00 in   Overcast
10:37 AM 37.0 °F 33.3 °F 33.1 °F 86% 29.65 in 10.0 mi SSW 4.6 mph - N/A   Overcast
10:53 AM 37.9 °F 32.7 °F 33.1 °F 83% 29.66 in 10.0 mi SSW 6.9 mph - N/A   Overcast
11:53 AM 39.0 °F 34.8 °F 33.1 °F 79% 29.65 in 10.0 mi SW 5.8 mph - N/A   Overcast
12:53 PM 39.9 °F 35.8 °F 33.1 °F 77% 29.64 in 10.0 mi South 5.8 mph - N/A   Overcast
1:53 PM 44.1 °F 40.1 °F 33.1 °F 65% 29.63 in 10.0 mi South 6.9 mph - N/A   Partly Cloudy
2:53 PM 45.0 °F 40.1 °F 32.0 °F 60% 29.62 in 10.0 mi SSE 9.2 mph - N/A   Overcast
3:53 PM 45.0 °F 40.1 °F 33.1 °F 63% 29.60 in 10.0 mi SSE 9.2 mph - N/A   Mostly Cloudy
4:53 PM 46.9 °F - 28.0 °F 48% 29.60 in 10.0 mi SW 10.4 mph 20.7 mph N/A   Overcast
5:53 PM 45.0 °F 39.3 °F 30.9 °F 58% 29.63 in 10.0 mi WNW 11.5 mph - N/A   Overcast
6:53 PM 42.1 °F 37.7 °F 33.1 °F 70% 29.67 in 10.0 mi West 6.9 mph - N/A   Mostly Cloudy
7:53 PM 39.9 °F 34.5 °F 32.0 °F 73% 29.71 in 10.0 mi West 8.1 mph - N/A   Overcast
8:53 PM 37.9 °F 31.5 °F 30.9 °F 76% 29.73 in 10.0 mi WNW 9.2 mph - N/A   Clear
9:53 PM 36.0 °F 32.1 °F 30.0 °F 79% 29.74 in 10.0 mi West 4.6 mph - N/A   Clear
10:53 PM 36.0 °F - 30.0 °F 79% 29.73 in 10.0 mi Calm Calm - N/A   Scattered Clouds
11:53 PM 34.0 °F 31.0 °F 30.0 °F 85% 29.73 in 10.0 mi WSW 3.5 mph - N/A   Mostly Cloudy